Flag for U.S.A. Weather past 2 weeks in Charleston, South Carolina, U.S.A.

Now
60 °F

Scattered clouds.


Feels Like: 60 °F
Forecast: 40 / 62 °F
Wind: 8 mph from Southeast

Location: Charleston Air Force Base Reporting Station

Current Time: Dec 18, 2014 at 4:20:27 PM

Latest Report: Dec 18, 2014 at 3:56 PM


Visibility: 10 mi

Pressure: 30.06 "Hg

Humidity: 52%

Dew point: 42 °F

Location of CharlestonLocation

Historic Weather in Charleston — Graph

°F

Charleston temperature yesterday

Maximum temperature yesterday: 65 °F (at 2:56 PM)
Minimum temperature yesterday: 43 °F (at 6:56 AM)
Average temperature yesterday: 52 °F

Past Weeks' High & Low Weather Summary

 TemperatureHumidityPressure
High72 °F (Dec 6, 1:56 PM)100% (Dec 3, 8:02 PM)30.43 "Hg (Dec 3, 8:02 PM)
Low28 °F (Dec 12, 5:56 AM)18% (Dec 13, 12:56 PM)29.94 "Hg (Dec 9, 2:56 PM)
Average51 °F73%30.15 "Hg
* Reported Dec 3 2:56 PM — Dec 18 2:56 PM, Charleston, Weather by CustomWeather, © 2014

Note: Actual official high and low records may vary slightly from our data, if they occured in-between our weather recording intervals... More about our weather records

Advertising

Charleston weather history for previous 24 hours

 ConditionsComfort  
Time TempWeatherWind HumidityBarometerVisibility
2:56 PM
Dec 18
62 °FPassing clouds.5 mph46%30.07 "Hg10 mi
1:56 PM62 °FPassing clouds.5 mph46%30.08 "Hg10 mi
12:56 PM61 °FPassing clouds.3 mph48%30.09 "Hg10 mi
11:56 AM59 °FPartly sunny.No wind54%30.13 "Hg10 mi
10:56 AM57 °FBroken clouds.3 mph58%30.16 "Hg10 mi
9:56 AM54 °FBroken clouds.3 mph67%30.17 "Hg10 mi
8:56 AM47 °FScattered clouds.3 mph86%30.17 "Hg10 mi
7:56 AM42 °FBroken clouds.No wind92%30.15 "Hg8 mi
6:56 AM40 °FPassing clouds.No wind93%30.13 "Hg10 mi
5:56 AM40 °FPassing clouds.No wind97%30.12 "Hg10 mi
4:56 AM40 °FPassing clouds.No wind97%30.10 "Hg10 mi
3:56 AM40 °FPassing clouds.No wind97%30.09 "Hg8 mi
2:56 AM40 °FClear.No wind93%30.10 "Hg10 mi
1:56 AM44 °FPassing clouds.No wind89%30.10 "Hg10 mi
12:56 AM42 °FPassing clouds.No wind92%30.10 "Hg10 mi
11:56 PM
Dec 17
45 °FPassing clouds.No wind90%30.11 "Hg10 mi
10:56 PM47 °FPassing clouds.No wind83%30.11 "Hg10 mi
9:56 PM46 °FClear.3 mph83%30.11 "Hg10 mi
8:56 PM49 °FClear.No wind77%30.12 "Hg10 mi
7:56 PM47 °FClear.3 mph80%30.11 "Hg10 mi
6:56 PM52 °FClear.3 mph66%30.11 "Hg10 mi
5:56 PM50 °FPassing clouds.6 mph71%30.09 "Hg10 mi
4:56 PM57 °FScattered clouds.7 mph55%30.08 "Hg10 mi
Weather by CustomWeather, © 2014

See weather overviewHow to use our weather pages